User: anonymous
Location: Unspecified
(0.0000°N, 0.0000°E)
Time: 21:18:27
(UTC+02:00)
Language:

CZ-4B R/B - Orbit

View from above orbital plane
View from above orbital plane
View from above satellite
View from above satellite

Ground track
Ground track

The orbit data is extracted from the following two-line orbital elements,

1 33410U 08053C   14113.83967121  .00004887  00000-0  39521-3 0  7879
2 33410 097.5801 093.1244 0133061 087.6617 273.9831 14.93467004298735
Epoch (UTC): 23 April 2014 20:09:07
Eccentricity: 0.0133061
inclination: 97.5801°
perigee height: 494 km
apogee height: 680 km
right ascension of ascending node: 93.1244°
argument of perigee: 87.6617°
revolutions per day: 14.93467004
mean anomaly at epoch: 273.9831°
orbit number at epoch: 29873

The dashed part of the orbit path shows where the satellite is in the earth's shadow,  

DLR